Weather History for Beaufort, NC

Change the Weather History Date:

Thursday, August 1, 2013

  Actual Average Record
Temperature  
Mean Temperature 76 °F -  
Max Temperature 81 °F 87 °F 94 °F (1961)
Min Temperature 72 °F 73 °F 59 °F (1966)
Cooling Degree Days 12    
Growing Degree Days 26 (Base 50)    
Moisture  
Dew Point 74 °F    
Average Humidity 88    
Maximum Humidity 100    
Minimum Humidity 79    
Precipitation  
Precipitation 0.44 in - - ()
Sea Level Pressure  
Sea Level Pressure 29.96 in    
Wind  
Wind Speed 10 mph (SW)    
Max Wind Speed 24 mph    
Max Gust Speed 34 mph    
Visibility 8 miles    
Events Rain    
Averages and records for this station are not official NWS values.
T = Trace of Precipitation, MM = Missing Value Source: NWS Daily Summary

Daily Weather History Graph

Daily Weather History Graph

Search for Another Location

Airport:

Trip Planner

Search our weather history database for the weather conditions in past years. The results will help you decide how hot, cold, wet, or windy it might be!

Date:

Astronomy

Aug. 01, 2013 Rise Set
Actual Time 6:16 AM EDT 8:08 PM EDT
Civil Twilight 5:49 AM EDT 8:36 PM EDT
Nautical Twilight 5:15 AM EDT 9:09 PM EDT
Astronomical Twilight 4:39 AM EDT 9:45 PM EDT
Moon 1:52 AM EDT (8/1) 4:14 PM EDT (8/1)
Length of Visible Light 14h 47m
Length of Day
13h 51m
Waning Crescent, 23% of the Moon is Illuminated
Aug 1
Waning Crescent
Aug 6
New
Aug 14
First Quarter
Aug 20
Full
Aug 28
Last Quarter

Hourly Weather History & Observations

Time (EDT) Temp. Heat Index Dew Point Humidity Pressure Visibility Wind Dir Wind Speed Gust Speed Precip Events Conditions
12:58 AM 79.0 °F - 73.9 °F 84% 30.04 in 10.0 mi SSE 4.6 mph - N/A   Overcast
1:58 AM 79.0 °F - 75.0 °F 88% 30.01 in 10.0 mi SSE 4.6 mph - N/A   Clear
2:48 AM 78.8 °F - 73.4 °F 83% 29.99 in 10.0 mi South 8.1 mph - N/A   Mostly Cloudy
2:58 AM 79.0 °F - 73.9 °F 84% 29.99 in 10.0 mi South 5.8 mph - N/A   Mostly Cloudy
3:11 AM 78.8 °F - 73.4 °F 83% 29.99 in 10.0 mi SSE 4.6 mph - N/A   Overcast
3:58 AM 79.0 °F - 73.9 °F 84% 29.99 in 10.0 mi South 9.2 mph - N/A   Mostly Cloudy
4:51 AM 75.2 °F - 71.6 °F 89% 29.99 in 7.0 mi WSW 24.2 mph 34.5 mph 0.01 in Rain Light Rain
4:58 AM 73.9 °F - 72.0 °F 93% 30.00 in 3.0 mi West 19.6 mph 29.9 mph 0.08 in Rain Heavy Rain
5:00 AM 73.4 °F - 71.6 °F 94% 30.00 in 2.5 mi West 17.3 mph 29.9 mph 0.01 in Rain Heavy Rain
5:03 AM 73.4 °F - 71.6 °F 94% 30.00 in 2.5 mi West 13.8 mph 25.3 mph 0.01 in Rain Rain
5:06 AM 73.4 °F - 71.6 °F 94% 29.99 in 3.0 mi West 13.8 mph 25.3 mph 0.02 in Rain Rain
5:19 AM 73.4 °F - 71.6 °F 94% 29.99 in 4.0 mi West 12.7 mph - 0.06 in Rain Heavy Rain
5:37 AM 73.4 °F - 71.6 °F 94% 29.99 in 4.0 mi WNW 11.5 mph - 0.10 in Rain Rain
5:58 AM 72.0 °F - 72.0 °F 100% 29.99 in 9.0 mi WNW 6.9 mph - 0.11 in   Scattered Clouds
6:58 AM 73.0 °F - 72.0 °F 96% 30.00 in 2.5 mi Calm Calm - 0.03 in Rain Rain
7:12 AM 73.4 °F - 71.6 °F 94% 30.00 in 5.0 mi Calm Calm - 0.01 in Rain Light Rain
7:58 AM 73.0 °F - 73.0 °F 100% 30.01 in 6.0 mi Calm Calm - 0.02 in Rain Light Rain
8:37 AM 75.2 °F - 73.4 °F 94% 30.00 in 5.0 mi Calm Calm - 0.01 in Rain Light Rain
8:49 AM 75.2 °F - 73.4 °F 94% 30.00 in 5.0 mi South 6.9 mph - 0.01 in Rain Light Rain
8:58 AM 73.9 °F - 72.0 °F 93% 30.00 in 10.0 mi South 5.8 mph - 0.01 in   Overcast
9:58 AM 75.0 °F - 73.0 °F 94% 29.99 in 10.0 mi South 3.5 mph - 0.01 in   Overcast
10:58 AM 73.9 °F - 73.0 °F 97% 29.98 in 2.5 mi Calm Calm - 0.06 in Rain Rain
11:09 AM 73.4 °F - 73.4 °F 100% 29.98 in 3.0 mi Calm Calm - 0.01 in Rain Rain
11:58 AM 75.0 °F - 73.9 °F 96% 29.97 in 6.0 mi South 6.9 mph - 0.07 in Rain Light Rain
12:58 PM 75.9 °F - 73.0 °F 91% 29.96 in 10.0 mi SSE 11.5 mph - 0.05 in   Mostly Cloudy
1:33 PM 78.8 °F - 73.4 °F 83% 29.95 in 10.0 mi SSW 11.5 mph - N/A   Mostly Cloudy
1:58 PM 79.0 °F - 75.0 °F 88% 29.95 in 10.0 mi SSW 12.7 mph - N/A   Mostly Cloudy
2:08 PM 78.8 °F - 75.2 °F 89% 29.94 in 10.0 mi SSW 12.7 mph - N/A   Mostly Cloudy
2:26 PM 78.8 °F - 73.4 °F 83% 29.94 in 10.0 mi SW 11.5 mph - N/A   Scattered Clouds
2:58 PM 80.1 °F 84.2 °F 73.0 °F 79% 29.93 in 10.0 mi SW 15.0 mph - N/A   Scattered Clouds
3:32 PM 80.6 °F 85.4 °F 73.4 °F 79% 29.92 in 10.0 mi SW 12.7 mph - N/A   Mostly Cloudy
3:50 PM 80.6 °F 86.2 °F 75.2 °F 84% 29.92 in 10.0 mi SSW 12.7 mph - N/A   Mostly Cloudy
3:58 PM 80.1 °F 85.1 °F 75.0 °F 85% 29.92 in 10.0 mi SW 11.5 mph - N/A   Mostly Cloudy
4:38 PM 80.6 °F 85.4 °F 73.4 °F 79% 29.91 in 8.0 mi SW 15.0 mph - N/A   Scattered Clouds
4:45 PM 80.6 °F 86.2 °F 75.2 °F 84% 29.91 in 8.0 mi WSW 17.3 mph 23.0 mph N/A   Mostly Cloudy
4:55 PM 80.6 °F 85.4 °F 73.4 °F 79% 29.91 in 9.0 mi SW 17.3 mph 25.3 mph N/A   Scattered Clouds
4:58 PM 81.0 °F 86.2 °F 73.9 °F 79% 29.91 in 9.0 mi WSW 16.1 mph - N/A   Mostly Cloudy
5:41 PM 78.8 °F - 73.4 °F 83% 29.91 in 8.0 mi SW 19.6 mph - N/A   Mostly Cloudy
5:58 PM 80.1 °F 84.5 °F 73.9 °F 81% 29.92 in 8.0 mi SW 18.4 mph 24.2 mph N/A   Mostly Cloudy
6:58 PM 80.1 °F 84.5 °F 73.9 °F 81% 29.91 in 8.0 mi WSW 18.4 mph 28.8 mph N/A   Clear
7:58 PM 79.0 °F - 75.0 °F 88% 29.93 in 8.0 mi SW 15.0 mph 21.9 mph N/A   Scattered Clouds
8:58 PM 79.0 °F - 75.0 °F 88% 29.94 in 9.0 mi SW 15.0 mph 25.3 mph N/A   Scattered Clouds
9:42 PM 78.8 °F - 75.2 °F 89% 29.94 in 10.0 mi WSW 17.3 mph 26.5 mph N/A   Mostly Cloudy
9:58 PM 79.0 °F - 75.0 °F 88% 29.95 in 10.0 mi WSW 18.4 mph 25.3 mph N/A   Mostly Cloudy
10:12 PM 78.8 °F - 73.4 °F 83% 29.94 in 10.0 mi SW 15.0 mph 23.0 mph N/A   Partly Cloudy
10:50 PM 78.8 °F - 75.2 °F 89% 29.95 in 9.0 mi WSW 16.1 mph 24.2 mph N/A   Mostly Cloudy
10:58 PM 79.0 °F - 75.9 °F 90% 29.96 in 8.0 mi SW 11.5 mph 23.0 mph N/A   Mostly Cloudy
11:27 PM 78.8 °F - 75.2 °F 89% 29.95 in 9.0 mi WSW 12.7 mph 20.7 mph N/A   Scattered Clouds
11:58 PM 79.0 °F - 75.0 °F 88% 29.96 in 9.0 mi WSW 12.7 mph 21.9 mph N/A   Partly Cloudy